Tracking 25693 objects as of 1-Jul-2022
HD Live streaming from Space Station
objects crossing your sky now

FENGYUN 1C DEB

Track FENGYUN 1C DEB now!
10-day predictions


NORAD ID: 30342
Int'l Code: 1999-025ABD
Perigee: 852.4 km
Apogee: 1,110.4 km
Inclination: 100.1 °
Period: 104.6 minutes
Semi major axis: 7352 km
RCS: 0.0538 m2 (small)
Launch date: May 10, 1999
Source: People's Republic of China (PRC)
Launch site: Taiyaun Space Center, China (TSC)

Note: This is SATELLITE DEBRIS
aabbcc
Your satellite tracking list
Your tracking list is empty




NASA's NSSDC Master Catalog

Two Line Element Set (TLE):
1 30342U 99025ABD 22181.87947670  .00000197  00000-0  22152-3 0  9991
2 30342 100.1263 258.3572 0175468 118.8989 307.9977 13.77083110775185
Source of the keplerian elements: AFSPC